Location: Ehrke Reservoir
(40.0279°N, 99.6641°W)
Time: 17:25:59
(UTC+00:00)

ADEOS Rocket - Pass Details

Date: 20 January 2020
Orbit: 859 x 1306 km, 98.7° (Epoch: 19 February)

Event Time Altitude Azimuth Distance (km) Brightness Sun altitude
Exits shadow 01:27:14 - 16° (NNE) 3,738 5.8 -19.9°
Reaches altitude 10° 01:29:34 10° 20° (NNE) 2,875 5.2 -20.4°
Maximum altitude 01:36:06 66° 102° (ESE) 1,234 3.2 -21.6°
Drops below altitude 10° 01:43:18 10° 184° (S) 3,163 5.8 -23.0°
Sets 01:46:04 0° 187° (S) 4,173 6.5 -23.5°
